Year,Month,Day,Hour,Minute,Value (Times are PST for windgust in km/hr)
2015,08,29,01,13,3.20
2015,08,29,01,14,3.20
2015,08,29,01,15,3.20
2015,08,29,01,16,3.20
2015,08,29,01,17,3.20
2015,08,29,02,11,3.20
2015,08,29,02,12,1.60
2015,08,29,04,43,1.60
2015,08,29,05,38,4.80
2015,08,29,05,39,4.80
2015,08,29,05,40,3.20
2015,08,29,05,43,3.20
2015,08,29,05,44,4.80
2015,08,29,05,47,4.80
2015,08,29,05,48,4.80
2015,08,29,05,49,1.60
2015,08,29,06,46,1.60
2015,08,29,08,21,1.60
2015,08,29,08,22,6.40
2015,08,29,08,23,14.50
2015,08,29,08,24,20.90
2015,08,29,08,25,24.20
2015,08,29,08,26,20.90
2015,08,29,08,27,20.90
2015,08,29,08,28,32.20
2015,08,29,08,29,32.20
2015,08,29,08,30,35.40
2015,08,29,08,31,27.40
2015,08,29,08,32,20.90
2015,08,29,08,33,25.70
2015,08,29,08,34,20.90
2015,08,29,08,35,27.40
2015,08,29,08,36,22.50
2015,08,29,08,37,22.50
2015,08,29,08,38,24.20
2015,08,29,08,39,17.70
2015,08,29,08,40,30.60
2015,08,29,08,41,22.50
2015,08,29,08,42,19.30
2015,08,29,08,43,30.60
2015,08,29,08,44,16.10
2015,08,29,08,45,9.60
2015,08,29,08,46,22.50
2015,08,29,08,47,20.90
2015,08,29,08,48,27.40
2015,08,29,08,49,33.80
2015,08,29,08,50,22.50
2015,08,29,08,51,17.70
2015,08,29,08,52,25.70
2015,08,29,08,53,32.20
2015,08,29,08,54,27.40
2015,08,29,08,55,17.70
2015,08,29,08,56,17.70
2015,08,29,08,57,22.50
2015,08,29,08,58,25.70
2015,08,29,08,59,17.70
2015,08,29,09,00,19.30
2015,08,29,09,01,14.50
2015,08,29,09,02,25.70
2015,08,29,09,03,32.20
2015,08,29,09,04,24.20
2015,08,29,09,05,32.20
2015,08,29,09,06,33.80
2015,08,29,09,07,40.20
2015,08,29,09,08,30.60
2015,08,29,09,09,30.60
2015,08,29,09,10,30.60
2015,08,29,09,11,20.90
2015,08,29,09,12,29.00
2015,08,29,09,13,35.40
2015,08,29,09,14,35.40
2015,08,29,09,15,24.20
2015,08,29,09,16,19.30
2015,08,29,09,17,20.90
2015,08,29,09,18,22.50
2015,08,29,09,19,32.20
2015,08,29,09,20,27.40
2015,08,29,09,21,49.90
2015,08,29,09,22,59.50
2015,08,29,09,23,48.30
2015,08,29,09,24,46.70
2015,08,29,09,25,30.60
2015,08,29,09,26,37.00
2015,08,29,09,27,27.40
2015,08,29,09,28,35.40
2015,08,29,09,29,20.90
2015,08,29,09,30,24.20
2015,08,29,09,31,24.20
2015,08,29,09,32,22.50
2015,08,29,09,33,20.90
2015,08,29,09,34,27.40
2015,08,29,09,35,14.50
2015,08,29,09,36,20.90
2015,08,29,09,37,24.20
2015,08,29,09,38,38.60
2015,08,29,09,39,25.70
2015,08,29,09,40,29.00
2015,08,29,09,41,32.20
2015,08,29,09,42,19.30
2015,08,29,09,43,22.50
2015,08,29,09,44,12.90
2015,08,29,09,45,9.60
2015,08,29,09,46,11.30
2015,08,29,09,47,25.70
2015,08,29,09,48,12.90
2015,08,29,09,49,9.60
2015,08,29,09,50,12.90
2015,08,29,09,51,11.30
2015,08,29,09,52,9.60
2015,08,29,09,53,11.30
2015,08,29,09,54,9.60
2015,08,29,09,56,9.60
2015,08,29,09,57,11.30
2015,08,29,09,58,12.90
2015,08,29,09,59,8.10
2015,08,29,10,00,1.60
2015,08,29,10,01,6.40
2015,08,29,10,02,16.10
2015,08,29,10,03,11.30
2015,08,29,10,04,3.20
2015,08,29,10,05,1.60
2015,08,29,10,06,1.60
2015,08,29,10,07,16.10
2015,08,29,10,08,11.30
2015,08,29,10,09,8.10
2015,08,29,10,10,8.10
2015,08,29,10,28,6.40
2015,08,29,10,29,6.40
2015,08,29,11,17,1.60
2015,08,29,12,02,3.20
2015,08,29,12,03,9.60
2015,08,29,12,04,8.10
2015,08,29,12,05,8.10
2015,08,29,12,06,8.10
2015,08,29,12,07,6.40
2015,08,29,12,08,6.40
2015,08,29,12,09,8.10
2015,08,29,12,10,8.10
2015,08,29,12,11,12.90
2015,08,29,12,12,9.60
2015,08,29,12,13,11.30
2015,08,29,12,14,6.40
2015,08,29,12,21,6.40
2015,08,29,12,22,8.10
2015,08,29,12,23,8.10
2015,08,29,12,24,8.10
2015,08,29,12,25,9.60
2015,08,29,12,26,6.40
2015,08,29,12,27,9.60
2015,08,29,12,28,8.10
2015,08,29,12,29,9.60
2015,08,29,12,30,11.30
2015,08,29,12,31,6.40
2015,08,29,12,32,9.60
2015,08,29,12,33,9.60
2015,08,29,12,42,1.60
2015,08,29,12,43,9.60
2015,08,29,12,44,8.10
2015,08,29,12,45,6.40
2015,08,29,12,46,1.60
2015,08,29,12,49,8.10
2015,08,29,12,50,9.60
2015,08,29,12,51,20.90
2015,08,29,12,52,14.50
2015,08,29,12,53,19.30
2015,08,29,12,54,17.70
2015,08,29,12,55,38.60
2015,08,29,12,56,32.20
2015,08,29,12,57,38.60
2015,08,29,12,58,37.00
2015,08,29,12,59,43.50
2015,08,29,13,00,35.40
2015,08,29,13,01,35.40
2015,08,29,13,02,35.40
2015,08,29,13,03,41.80
2015,08,29,13,04,35.40
2015,08,29,13,05,40.20
2015,08,29,13,06,40.20
2015,08,29,13,07,40.20
2015,08,29,13,08,40.20
2015,08,29,13,09,40.20
2015,08,29,13,10,40.20
2015,08,29,13,11,40.20
2015,08,29,13,12,33.80
2015,08,29,13,13,49.90
2015,08,29,13,14,35.40
2015,08,29,13,15,38.60
2015,08,29,13,16,38.60
2015,08,29,13,17,45.10
2015,08,29,13,18,38.60
2015,08,29,14,57,29.00
2015,08,29,14,58,29.00
2015,08,29,14,59,40.20
2015,08,29,15,00,32.20
2015,08,29,15,01,27.40
2015,08,29,15,02,25.70
2015,08,29,15,03,41.80
2015,08,29,15,04,33.80
2015,08,29,15,05,37.00
2015,08,29,15,06,30.60
2015,08,29,15,07,30.60
2015,08,29,15,08,30.60
2015,08,29,15,09,30.60
2015,08,29,15,10,30.60
2015,08,29,15,11,24.20
2015,08,29,15,12,16.10
2015,08,29,15,13,16.10
2015,08,29,15,14,14.50
2015,08,29,15,15,30.60
2015,08,29,15,16,29.00
2015,08,29,15,17,14.50
2015,08,29,15,18,16.10
2015,08,29,15,19,17.70
2015,08,29,15,20,27.40
2015,08,29,15,21,29.00
2015,08,29,15,22,24.20
2015,08,29,15,23,38.60
2015,08,29,15,24,32.20
2015,08,29,15,25,32.20
2015,08,29,15,26,17.70
2015,08,29,15,27,33.80
2015,08,29,15,28,33.80
2015,08,29,15,29,45.10
2015,08,29,15,30,27.40
2015,08,29,15,31,32.20
2015,08,29,15,32,19.30
2015,08,29,15,33,32.20
2015,08,29,15,34,29.00
2015,08,29,15,35,38.60
2015,08,29,15,36,27.40
2015,08,29,15,37,54.70
2015,08,29,15,38,35.40
2015,08,29,15,39,37.00
2015,08,29,15,40,33.80
2015,08,29,15,41,48.30
2015,08,29,15,42,40.20
2015,08,29,15,43,32.20
2015,08,29,15,44,27.40
2015,08,29,15,45,22.50
2015,08,29,15,46,25.70
2015,08,29,15,47,32.20
2015,08,29,15,48,25.70
2015,08,29,15,49,32.20
2015,08,29,15,50,29.00
2015,08,29,15,51,33.80
2015,08,29,15,52,30.60
2015,08,29,15,53,38.60
2015,08,29,15,54,38.60
2015,08,29,15,55,35.40
2015,08,29,15,56,27.40
2015,08,29,15,57,33.80
2015,08,29,15,58,53.10
2015,08,29,15,59,37.00
2015,08,29,16,00,20.90
2015,08,29,16,01,27.40
2015,08,29,16,02,22.50
2015,08,29,16,03,27.40
2015,08,29,16,04,33.80
2015,08,29,16,05,19.30
2015,08,29,16,06,22.50
2015,08,29,16,07,16.10
2015,08,29,16,08,19.30
2015,08,29,16,09,20.90
2015,08,29,16,10,16.10
2015,08,29,16,11,14.50
2015,08,29,16,12,30.60
2015,08,29,16,13,12.90
2015,08,29,16,14,12.90
2015,08,29,16,15,19.30
2015,08,29,16,16,14.50
2015,08,29,16,17,16.10
2015,08,29,16,18,17.70
2015,08,29,16,19,11.30
2015,08,29,16,20,17.70
2015,08,29,16,21,17.70
2015,08,29,16,22,30.60
2015,08,29,16,23,24.20
2015,08,29,16,24,12.90
2015,08,29,16,25,17.70
2015,08,29,16,26,11.30
2015,08,29,16,27,14.50
2015,08,29,16,28,22.50
2015,08,29,16,29,16.10
2015,08,29,16,30,14.50
2015,08,29,16,31,19.30
2015,08,29,16,32,19.30
2015,08,29,16,33,19.30
2015,08,29,16,34,24.20
2015,08,29,16,35,19.30
2015,08,29,16,36,14.50
2015,08,29,16,37,29.00
2015,08,29,16,38,19.30
2015,08,29,16,39,24.20
2015,08,29,16,40,19.30
2015,08,29,16,41,19.30
2015,08,29,16,42,17.70
2015,08,29,16,43,11.30
2015,08,29,16,44,16.10
2015,08,29,16,45,19.30
2015,08,29,16,46,19.30
2015,08,29,16,47,17.70
2015,08,29,16,48,19.30
2015,08,29,16,49,20.90
2015,08,29,16,50,17.70
2015,08,29,16,51,14.50
2015,08,29,16,52,14.50
2015,08,29,16,53,12.90
2015,08,29,16,54,16.10
2015,08,29,16,55,20.90
2015,08,29,16,56,12.90
2015,08,29,16,57,17.70
2015,08,29,16,58,16.10
2015,08,29,16,59,17.70
2015,08,29,17,00,19.30
2015,08,29,17,01,16.10
2015,08,29,17,02,12.90
2015,08,29,17,03,9.60
2015,08,29,17,05,8.10
2015,08,29,17,06,4.80
2015,08,29,17,12,6.40
2015,08,29,17,13,19.30
2015,08,29,17,14,8.10
2015,08,29,17,15,8.10
2015,08,29,17,16,8.10
2015,08,29,17,17,8.10
2015,08,29,17,24,19.30
2015,08,29,17,25,19.30
2015,08,29,17,26,16.10
2015,08,29,17,27,24.20
2015,08,29,17,28,32.20
2015,08,29,17,29,20.90
2015,08,29,17,30,30.60
2015,08,29,17,31,14.50
2015,08,29,17,32,14.50
2015,08,29,17,33,19.30
2015,08,29,17,34,25.70
2015,08,29,17,35,9.60
2015,08,29,17,36,19.30
2015,08,29,17,37,16.10
2015,08,29,17,38,20.90
2015,08,29,17,39,11.30
2015,08,29,17,40,12.90
2015,08,29,17,41,17.70
2015,08,29,17,42,20.90
2015,08,29,17,43,11.30
2015,08,29,17,44,17.70
2015,08,29,17,45,6.40
2015,08,29,17,46,6.40
2015,08,29,17,47,20.90
2015,08,29,17,48,14.50
2015,08,29,17,49,12.90
2015,08,29,17,50,16.10
2015,08,29,17,51,12.90
2015,08,29,17,52,8.10
2015,08,29,17,53,32.20
2015,08,29,17,54,17.70
2015,08,29,17,55,35.40
2015,08,29,17,56,20.90
2015,08,29,17,57,20.90
2015,08,29,17,58,20.90
2015,08,29,17,59,19.30
2015,08,29,18,00,25.70
2015,08,29,18,01,19.30
2015,08,29,18,02,17.70
2015,08,29,18,03,16.10
2015,08,29,18,04,12.90
2015,08,29,18,05,24.20
2015,08,29,18,06,20.90
2015,08,29,18,07,19.30
2015,08,29,18,08,8.10
2015,08,29,18,09,12.90
2015,08,29,18,11,11.30
2015,08,29,18,12,19.30
2015,08,29,18,13,20.90
2015,08,29,18,14,25.70
2015,08,29,18,15,17.70
2015,08,29,18,16,29.00
2015,08,29,18,17,24.20
2015,08,29,18,18,17.70
2015,08,29,18,19,37.00
2015,08,29,18,20,24.20
2015,08,29,18,21,29.00
2015,08,29,18,22,24.20
2015,08,29,18,23,17.70
2015,08,29,18,24,27.40
2015,08,29,18,25,33.80
2015,08,29,18,26,19.30
2015,08,29,18,27,20.90
2015,08,29,18,28,38.60
2015,08,29,18,29,29.00
2015,08,29,18,30,14.50
2015,08,29,18,31,32.20
2015,08,29,18,32,24.20
2015,08,29,18,33,29.00
2015,08,29,18,34,12.90
2015,08,29,18,35,17.70
2015,08,29,18,36,35.40
2015,08,29,18,37,22.50
2015,08,29,18,38,17.70
2015,08,29,18,39,27.40
2015,08,29,18,40,33.80
2015,08,29,18,41,29.00
2015,08,29,18,42,24.20
2015,08,29,18,43,16.10
2015,08,29,18,44,17.70
2015,08,29,18,45,20.90
2015,08,29,18,46,14.50
2015,08,29,18,47,14.50
2015,08,29,18,48,16.10
2015,08,29,18,49,12.90
2015,08,29,18,50,9.60
2015,08,29,18,51,14.50
2015,08,29,18,52,16.10
2015,08,29,18,53,12.90
2015,08,29,18,54,16.10
2015,08,29,18,55,19.30
2015,08,29,18,56,25.70
2015,08,29,18,57,20.90
2015,08,29,18,58,17.70
2015,08,29,18,59,20.90
2015,08,29,19,00,19.30
2015,08,29,19,01,12.90
2015,08,29,19,02,14.50
2015,08,29,19,03,9.60
2015,08,29,19,04,16.10
2015,08,29,19,05,17.70
2015,08,29,19,06,22.50
2015,08,29,19,07,16.10
2015,08,29,19,08,11.30
2015,08,29,19,09,8.10
2015,08,29,19,34,6.40
2015,08,29,20,01,3.20
2015,08,29,20,02,14.50
2015,08,29,20,03,9.60
2015,08,29,20,04,9.60
2015,08,29,20,05,12.90
2015,08,29,20,06,14.50
2015,08,29,20,07,8.10
2015,08,29,20,15,8.10
2015,08,29,20,16,11.30
2015,08,29,20,17,11.30
2015,08,29,20,18,6.40
2015,08,29,20,19,9.60
2015,08,29,20,20,9.60
2015,08,29,20,21,14.50
2015,08,29,20,22,14.50
2015,08,29,20,24,19.30
2015,08,29,20,25,16.10
2015,08,29,20,26,16.10
2015,08,29,20,27,14.50
2015,08,29,20,28,14.50
2015,08,29,20,29,14.50
2015,08,29,20,30,17.70
2015,08,29,20,31,9.60
2015,08,29,20,32,16.10
2015,08,29,20,33,9.60
2015,08,29,20,34,24.20
2015,08,29,20,35,16.10
2015,08,29,20,36,17.70
2015,08,29,20,37,16.10
2015,08,29,20,38,17.70
2015,08,29,20,39,14.50
2015,08,29,20,40,24.20
2015,08,29,20,41,24.20
2015,08,29,20,42,20.90
2015,08,29,20,43,6.40
2015,08,29,20,44,9.60
2015,08,29,20,45,12.90
2015,08,29,20,46,22.50
2015,08,29,20,47,22.50
2015,08,29,20,48,12.90
2015,08,29,20,49,17.70
2015,08,29,20,50,17.70
2015,08,29,20,51,17.70
2015,08,29,20,52,16.10
2015,08,29,20,53,22.50
2015,08,29,20,54,22.50
2015,08,29,20,55,22.50
2015,08,29,20,56,16.10
2015,08,29,20,57,17.70
2015,08,29,20,58,22.50
2015,08,29,20,59,24.20
2015,08,29,21,00,19.30
2015,08,29,21,01,19.30
2015,08,29,21,02,19.30
2015,08,29,21,03,20.90
2015,08,29,21,04,16.10
2015,08,29,21,05,14.50
2015,08,29,21,06,20.90
2015,08,29,21,07,19.30
2015,08,29,21,08,17.70
2015,08,29,21,09,17.70
2015,08,29,21,10,16.10
2015,08,29,21,11,12.90
2015,08,29,21,12,4.80
2015,08,29,21,13,22.50
2015,08,29,21,14,22.50
2015,08,29,21,15,12.90
2015,08,29,21,16,9.60
2015,08,29,21,18,17.70
2015,08,29,21,19,12.90
2015,08,29,21,20,14.50
2015,08,29,21,21,16.10
2015,08,29,21,22,12.90
2015,08,29,21,24,8.10
2015,08,29,21,25,12.90
2015,08,29,21,26,9.60
2015,08,29,21,27,6.40
2015,08,29,21,28,6.40
2015,08,29,21,29,19.30
2015,08,29,21,30,20.90
2015,08,29,21,31,11.30
2015,08,29,21,32,20.90
2015,08,29,21,33,17.70
2015,08,29,21,34,6.40
2015,08,29,21,35,19.30
2015,08,29,21,36,11.30
2015,08,29,21,37,19.30
2015,08,29,21,38,9.60
2015,08,29,21,39,8.10
2015,08,29,21,40,9.60
2015,08,29,21,41,17.70
2015,08,29,21,42,11.30
2015,08,29,21,43,11.30
2015,08,29,21,44,8.10
2015,08,29,21,45,11.30
2015,08,29,21,46,17.70
2015,08,29,21,47,17.70
2015,08,29,21,48,8.10
2015,08,29,21,50,11.30
2015,08,29,21,52,9.60
2015,08,29,21,53,11.30
2015,08,29,21,54,12.90
2015,08,29,21,56,6.40
2015,08,29,21,59,24.20
2015,08,29,22,00,20.90
2015,08,29,22,01,16.10
2015,08,29,22,02,16.10
2015,08,29,22,03,16.10
2015,08,29,22,04,14.50
2015,08,29,22,05,14.50
2015,08,29,22,06,14.50
2015,08,29,22,07,4.80
2015,08,29,22,08,6.40
2015,08,29,22,09,14.50
2015,08,29,22,10,14.50
2015,08,29,22,11,11.30
2015,08,29,22,12,16.10
2015,08,29,22,13,9.60
2015,08,29,22,14,12.90
2015,08,29,22,15,16.10
2015,08,29,22,16,19.30
2015,08,29,22,17,14.50
2015,08,29,22,18,16.10
2015,08,29,22,19,9.60
2015,08,29,22,20,20.90
2015,08,29,22,21,20.90
2015,08,29,22,22,20.90
2015,08,29,22,23,22.50
2015,08,29,22,24,22.50
2015,08,29,22,25,14.50
2015,08,29,22,26,16.10
2015,08,29,22,27,20.90
2015,08,29,22,28,14.50
2015,08,29,22,29,9.60
2015,08,29,22,30,8.10
2015,08,29,22,31,16.10
2015,08,29,22,32,12.90
2015,08,29,22,33,9.60
2015,08,29,22,34,14.50
2015,08,29,22,35,14.50
2015,08,29,22,36,6.40
2015,08,29,22,37,19.30
2015,08,29,22,38,20.90
2015,08,29,22,39,16.10
2015,08,29,22,40,16.10
2015,08,29,22,41,17.70
2015,08,29,22,42,17.70
2015,08,29,22,43,9.60
2015,08,29,22,44,12.90
2015,08,29,22,45,14.50
2015,08,29,22,46,14.50
2015,08,29,22,47,9.60
2015,08,29,22,48,17.70
2015,08,29,22,49,19.30
2015,08,29,22,50,19.30
2015,08,29,22,51,17.70
2015,08,29,22,52,11.30
2015,08,29,22,53,12.90
2015,08,29,22,54,19.30
2015,08,29,22,55,17.70
2015,08,29,22,56,16.10
2015,08,29,22,57,16.10
2015,08,29,22,58,17.70
2015,08,29,22,59,14.50
2015,08,29,23,00,17.70
2015,08,29,23,01,14.50
2015,08,29,23,02,9.60
2015,08,29,23,03,6.40
2015,08,29,23,04,16.10
2015,08,29,23,05,14.50
2015,08,29,23,06,22.50
2015,08,29,23,07,12.90
2015,08,29,23,08,25.70
2015,08,29,23,09,24.20
2015,08,29,23,10,17.70
2015,08,29,23,11,27.40
2015,08,29,23,12,20.90
2015,08,29,23,13,19.30
2015,08,29,23,14,16.10
2015,08,29,23,15,16.10
2015,08,29,23,16,22.50
2015,08,29,23,17,24.20
2015,08,29,23,18,11.30
2015,08,29,23,19,24.20
2015,08,29,23,20,16.10
2015,08,29,23,21,16.10
2015,08,29,23,22,27.40
2015,08,29,23,23,20.90
2015,08,29,23,24,11.30
2015,08,29,23,25,16.10
2015,08,29,23,26,27.40
2015,08,29,23,27,19.30
2015,08,29,23,28,9.60
2015,08,29,23,29,6.40
2015,08,29,23,30,12.90
2015,08,29,23,31,17.70
2015,08,29,23,32,14.50
2015,08,29,23,33,12.90
2015,08,29,23,34,14.50
2015,08,29,23,35,22.50
2015,08,29,23,36,17.70
2015,08,29,23,37,17.70
2015,08,29,23,38,14.50
2015,08,29,23,39,11.30
2015,08,29,23,40,17.70
2015,08,29,23,41,12.90
2015,08,29,23,42,16.10
2015,08,29,23,43,11.30
2015,08,29,23,44,16.10
2015,08,29,23,45,12.90
2015,08,29,23,46,17.70
2015,08,29,23,47,12.90
2015,08,29,23,48,11.30
2015,08,29,23,49,19.30
2015,08,29,23,50,8.10
2015,08,29,23,52,11.30
2015,08,29,23,53,16.10
2015,08,29,23,55,14.50
2015,08,29,23,56,16.10
2015,08,29,23,57,11.30
2015,08,29,23,58,8.10
2015,08,29,23,59,12.90
